Location: Arrodets-la-Barthe
(43.0306°N, 0.2829°E)
Time: 11:48:25
(UTC+00:00)

Iridium 4 Rocket - Pass Details

Date: 04 June 2022
Orbit: 585 x 902 km, 86.9° (Epoch: 01 July)

Event Time Altitude Azimuth Distance (km) Brightness Sun altitude
Rises 22:14:30 0° 355° (N) 3,138 7.9 -20.3°
Reaches altitude 10° 22:16:43 10° 353° (N) 2,260 7.0 -20.5°
Maximum altitude 22:21:46 71° 271° (W) 836 3.7 -20.9°
Enters shadow 22:23:59 36° 196° (SSW) 1,267 4.2 -21.0°
